Tracking 31027 objects as of 19-Jul-2025
HD Live streaming from Space Station
objects crossing your sky now

COSMOS 1275 DEB

Track COSMOS 1275 DEB now!
10-day predictions


NORAD ID: 42101
Int'l Code: 1981-053PM
Perigee: 647.1 km
Apogee: 657.4 km
Inclination: 82.8 °
Period: 97.6 minutes
Semi major axis: 7023 km
RCS: Unknown
Launch date: June 4, 1981
Source: Commonwealth of Independent States (former USSR) (CIS)
Launch site: PLESETSK MISSILE AND SPACE COMPLEX (PKMTR)

Note: This is SATELLITE DEBRIS
Your satellite tracking list
COSMOS 830
Track 1 satellite(s)




NASA's NSSDC Master Catalog

Two Line Element Set (TLE):
1 42101U 81053PM  25197.70771102  .00011259  00000-0  16686-2 0  9991
2 42101  82.7664 192.2378 0007274  87.0236 273.1807 14.75012183564039
Source of the keplerian elements: AFSPC